Shenandoah Municipal
Thursday 12:15 AM
Temperature61° (61°/61°)
Dew Point61°
Relative Humidity100
%
Visibility10
mi
Pressure1013.5
mb
Wind Direction
Wind SpeedCalm
Precipitation Today0.00"

Last 30 Observations

Time PresWx Temp DP Feels RH% Vsby Pressure Ceiling Direction Speed 1h Precip
11:55 PM 61° 59° 94
%
10
mi
1013.2
mb
SSE
150°
7
mph
0.00"
11:35 PM 61° 61° 100
%
10
mi
1013.6
mb
SSE
150°
8
mph
0.00"
11:15 PM 59° 59° 100
%
10
mi
1013.6
mb
SSE
160°
6
mph
0.00"
10:55 PM 59° 59° 100
%
10
mi
1013.9
mb
Calm 0.00"
10:35 PM 61° 61° 100
%
10
mi
1013.9
mb
Calm 0.00"
10:15 PM 61° 59° 94
%
10
mi
1014.2
mb
Calm 0.00"
9:55 PM 63° 61° 94
%
10
mi
1013.9
mb
Calm 0.00"
9:35 PM 63° 61° 94
%
10
mi
1013.6
mb
S
170°
8
mph
0.00"
9:15 PM 64° 61° 88
%
10
mi
1013.6
mb
S
170°
8
mph
0.00"
8:55 PM 64° 61° 88
%
10
mi
1013.6
mb
S
170°
9
mph
0.00"
8:35 PM 64° 61° 88
%
10
mi
1013.6
mb
S
170°
9
mph
0.00"
8:15 PM 66° 61° 83
%
10
mi
1013.2
mb
S
170°
7
mph
0.00"
7:55 PM 66° 63° 88
%
10
mi
1013.2
mb
SSE
160°
8
mph
0.00"
7:35 PM 68° 63° 83
%
10
mi
1013.2
mb
SSE
160°
8
mph
0.00"
7:15 PM 70° 61° 73
%
10
mi
1013.2
mb
SSE
160°
7
mph
0.00"
6:55 PM 72° 63° 72°73
%
10
mi
1013.6
mb
S
180°
9
mph
0.00"
6:35 PM 73° 63° 74°69
%
10
mi
1013.6
mb
S
190°
10
mph
0.00"
6:15 PM 75° 63° 75°65
%
10
mi
1013.2
mb
S
190°
9
mph
0.00"
5:55 PM 75° 63° 75°65
%
10
mi
1013.2
mb
S
190°
14
mph
0.00"
5:35 PM 75° 63° 75°65
%
10
mi
1013.6
mb
3,600
ft
S
190°
11
mph
0.00"
5:15 PM 75° 63° 75°65
%
10
mi
1013.6
mb
3,600
ft
S
190°
16
mph
0.00"
4:55 PM 75° 63° 75°65
%
10
mi
1013.9
mb
3,700
ft
S
180°
13
mph
0.00"
4:35 PM 75° 63° 75°65
%
10
mi
1013.9
mb
3,500
ft
S
180°
16
mph
0.00"
4:15 PM 75° 63° 75°65
%
10
mi
1014.2
mb
3,300
ft
S
190°
15
mph
0.00"
3:55 PM 73° 63° 74°69
%
10
mi
1014.6
mb
3,400
ft
SSW
200°
11
mph
(G18)
0.00"
3:35 PM 73° 63° 74°69
%
10
mi
1014.6
mb
3,300
ft
SSW
200°
13
mph
0.00"
3:15 PM 73° 63° 74°69
%
10
mi
1014.9
mb
3,300
ft
SSW
210°
11
mph
0.00"
2:55 PM 73° 63° 74°69
%
10
mi
1015.2
mb
2,800
ft
SW
220°
10
mph
0.00"
2:35 PM 73° 63° 74°69
%
10
mi
1015.2
mb
2,800
ft
S
190°
13
mph
0.00"
2:15 PM 75° 63° 75°65
%
10
mi
1015.6
mb
4,300
ft
S
180°
14
mph
0.00"